[[{"header":{"parameterUnit":"m.s-1","parameterCategory":1,"la1":30.2991,"la2":30.254,"lo1":-89.0895,"lo2":-89.0444,"dy":0.0017,"dx":0.0017,"nx":28,"ny":28,"refTime":"2025-06-18T21:00:00:Z","depth":0,"parameterNumber":2,"parameterNumberName":"U-component_of_WINDS"},"data":[0,0,0,0,0,0,0,0,0,0,0,0,0,0,0,0,0,0,0,0,0,0,0,0,0,0,0,0,0,0,0,0,0,0,0,0,0,0,0,0,0,0,0,0,0,0,0,0,0,0,0,0,0,0,0,0,0,0,2.5178,2.5178,0,2.5189,2.5189,2.5189,2.5126,2.5124,2.5122,2.512,2.5134,2.5136,2.5138,0,0,0,0,0,0,0,0,0,0,0,0,0,2.5105,2.5107,2.5178,2.5178,2.5178,2.5189,2.5189,2.5189,2.5126,2.5124,2.5122,2.512,2.5134,2.5136,2.5139,0,0,0,0,0,0,0,0,0,0,0,0,0,2.5129,2.5108,2.5178,2.5148,2.5145,2.5189,2.5189,2.5189,2.5127,2.5124,2.5121,2.5119,2.5133,2.5136,2.5139,2.5213,0,0,2.5148,2.515,0,0,0,0,0,0,0,0,2.5128,2.5132,2.5152,2.515,2.5147,2.5153,2.5169,2.5197,2.5127,2.5134,2.512,2.5117,2.5143,2.5145,2.5153,2.5213,2.5214,2.5149,2.5151,2.5152,2.5153,0,0,0,0,0,0,0,2.5126,2.5131,2.5182,2.5152,2.5149,2.5135,2.5135,2.5174,2.5154,2.5133,2.5128,2.513,2.5141,2.515,2.5153,2.5214,2.5149,2.5151,2.5153,2.5155,2.5339,2.5342,0,0,0,0,0,0,2.5128,2.513,2.5182,2.5182,2.513,2.5139,2.5139,2.5154,2.5153,2.515,2.5133,2.5127,2.5146,2.515,2.5153,2.5242,2.5152,2.5155,2.5157,2.5336,2.534,2.5343,0,0,0,0,0,0,2.5127,2.5133,2.5181,2.5155,2.516,2.5143,2.516,2.5156,2.5165,2.5153,2.5149,2.5146,2.5144,2.5149,2.5199,2.5242,2.5156,2.5159,2.5333,2.5337,2.5341,2.5419,0,0,0,0,0,0,2.5125,2.5133,2.516,2.5156,2.5162,2.5226,2.5163,2.5158,2.517,2.5163,2.5164,2.5162,2.5143,2.5195,2.5202,2.5245,2.5161,2.5329,2.5335,2.534,2.5413,2.5426,2.5437,0,0,0,0,0,2.5122,2.5181,2.5161,2.5168,2.5194,2.5228,2.5232,2.5208,2.5174,2.5201,2.5194,2.5162,2.5236,2.52,2.5208,2.5252,2.5326,2.5333,2.534,2.5407,2.5423,2.5437,0,0,0,0,0,0,2.5191,2.518,2.5158,2.5217,2.5224,2.5218,2.5252,2.5225,2.5243,2.5236,2.5206,2.5207,2.5263,2.5262,2.5223,2.5325,2.5275,2.5284,2.5324,2.5339,2.5351,2.5351,2.5164,0,0,0,0,0,2.5212,2.524,2.5229,2.5282,2.5287,2.5269,2.5283,2.5264,2.5271,2.5273,2.527,2.5278,2.5304,2.5321,2.5343,2.5412,2.5413,2.5446,2.5458,2.5468,2.5477,2.5517,2.5532,2.5366,2.5366,2.5365,0,0,2.5258,2.5255,2.5274,2.5296,2.5299,2.533,2.5272,2.5306,2.5329,2.5279,2.5326,2.5324,2.5332,2.5393,2.5419,2.5394,2.5523,2.5477,2.5485,2.5488,2.5525,2.5541,2.5555,2.537,2.5369,2.5369,0,0,2.5357,2.5357,2.5402,2.5407,2.5413,2.5401,2.5412,2.541,2.5407,2.5454,2.5418,2.5445,2.5489,2.5497,2.5507,2.5612,2.5583,2.562,2.5684,2.5723,2.5736,2.5748,2.5788,2.5802,2.5628,2.5628,2.5628,0,2.5413,2.5457,2.5429,2.5467,2.5479,2.5434,2.5482,2.5488,2.5501,2.5511,2.5482,2.5538,2.554,2.5603,2.5629,2.5637,2.5651,2.562,2.5736,2.5747,2.5758,2.5796,2.5811,2.5632,2.5632,2.5631,2.5631,0,2.5527,2.5558,2.5595,2.5609,2.5625,2.5667,2.5648,2.5667,2.5648,2.5639,2.569,2.569,2.5714,2.5727,2.5708,2.5789,2.5773,2.5741,2.569,2.5779,2.5814,2.5828,2.5639,2.5637,2.5636,2.5635,0,0,2.5669,2.5669,2.5683,2.5691,2.5695,2.5719,2.576,2.5783,2.5802,2.5813,2.5849,2.5887,2.5858,2.5869,2.5851,2.5885,2.5972,2.5848,2.5848,2.5874,2.6065,2.6091,2.6108,2.5952,2.5955,2.5957,2.6065,0,2.5769,2.5839,2.5816,2.5888,2.5918,2.5877,2.5914,2.5921,2.5915,2.5941,2.5934,2.5964,2.5921,2.5928,2.596,2.5955,2.601,2.5946,2.5988,2.599,2.599,2.6126,2.6154,2.6256,2.6079,2.6081,2.6082,0,2.5894,2.591,2.5985,2.5987,2.5999,2.6032,2.6052,2.6077,2.6085,2.6079,2.6093,2.6068,2.6111,2.6059,2.6119,2.6076,2.6092,2.6092,2.6096,2.6101,2.6043,2.6138,2.6287,2.6304,2.6103,2.6102,2.61,0,2.5994,2.6035,2.6086,2.6093,2.6095,2.612,2.6122,2.6128,2.6144,2.6162,2.6173,2.6196,2.6209,2.6228,2.6211,2.6174,2.6276,2.6221,2.6274,2.6274,2.6298,2.6297,2.6455,2.6304,2.6304,2.6304,2.6304,0,2.6108,2.6157,2.6131,2.6163,2.6216,2.619,2.6245,2.6243,2.6249,2.6281,2.6246,2.6277,2.6252,2.6281,2.6268,2.6322,2.6327,2.6325,2.6322,2.633,2.6331,2.6341,2.6335,2.6308,2.6307,2.6306,2.6306,0,2.623,2.6214,2.6268,2.6266,2.6267,2.6307,2.6306,2.6336,2.6328,2.6369,2.6377,2.6365,2.6398,2.6382,2.6417,2.6408,2.6478,2.6464,2.6476,2.6473,2.6527,2.6523,2.6699,2.6723,2.6555,2.6556,2.6557,0,2.6305,2.6341,2.6344,2.6363,2.6368,2.6398,2.6414,2.6391,2.641,2.6424,2.6454,2.6483,2.6506,2.6562,2.6557,2.6584,2.6571,2.6631,2.6575,2.6583,2.6576,2.6575,2.658,2.6643,2.6645,2.6647,2.6648,0,2.6442,2.6433,2.6457,2.648,2.6501,2.6518,2.6532,2.6549,2.6527,2.655,2.6583,2.6601,2.6637,2.6669,2.6693,2.6697,2.667,2.6665,2.668,2.6689,2.6696,2.6696,2.6509,2.6662,2.6661,2.6659,2.6659,2.6658,2.6544,2.6576,2.6583,2.6613,2.6621,2.6635,2.6665,2.666,2.6687,2.6715,2.6699,2.6739,2.675,2.6779,2.6787,2.682,2.6796,2.6816,2.6821,2.6827,2.6836,2.6689,2.6823,2.6823,2.6823,2.6822,2.6822,0,2.6682,2.6685,2.6712,2.6733,2.6757,2.6728,2.6743,2.6766,2.6801,2.6812,2.6836,2.6876,2.6907,2.6905,2.6934,2.696,2.6949,2.6969,2.6968,2.697,2.6853,2.684,2.6978,2.6978,2.6978,2.6978,2.6978,2.6978,2.6756,2.6809,2.6801,2.6859,2.6861,2.69,2.6912,2.6926,2.6935,2.6981,2.7007,2.7005,2.7012,2.7041,2.7069,2.7068,2.7082,2.7107,2.7102,2.6993,2.6978,2.6963,2.695,2.7109,2.7109,2.7216,2.7217,2.7217]},{"header":{"parameterUnit":"m.s-1","parameterCategory":1,"la1":30.2991,"la2":30.254,"lo1":-89.0895,"lo2":-89.0444,"dy":0.0017,"dx":0.0017,"nx":28,"ny":28,"refTime":"2025-06-18T21:00:00:Z","depth":0,"parameterNumber":3,"parameterNumberName":"V-component_of_WINDS"},"data":[0,0,0,0,0,0,0,0,0,0,0,0,0,0,0,0,0,0,0,0,0,0,0,0,0,0,0,0,0,0,0,0,0,0,0,0,0,0,0,0,0,0,0,0,0,0,0,0,0,0,0,0,0,0,0,0,0,0,-1.7812,-1.7812,0,-1.7829,-1.7829,-1.7829,-1.7825,-1.7825,-1.7824,-1.7824,-1.7841,-1.7842,-1.7843,0,0,0,0,0,0,0,0,0,0,0,0,0,-1.7776,-1.7776,-1.7812,-1.7812,-1.7812,-1.7829,-1.7829,-1.783,-1.7825,-1.7825,-1.7824,-1.7824,-1.7841,-1.7842,-1.7843,0,0,0,0,0,0,0,0,0,0,0,0,0,-1.7792,-1.7777,-1.7812,-1.7812,-1.7812,-1.7829,-1.7829,-1.783,-1.7825,-1.7825,-1.7824,-1.7824,-1.7841,-1.7842,-1.7843,-1.786,0,0,-1.7846,-1.7847,0,0,0,0,0,0,0,0,-1.7791,-1.7793,-1.7812,-1.7812,-1.7812,-1.7824,-1.7823,-1.784,-1.7825,-1.782,-1.7824,-1.7823,-1.7836,-1.7838,-1.7842,-1.7861,-1.7862,-1.7847,-1.7847,-1.7848,-1.7848,0,0,0,0,0,0,0,-1.779,-1.7793,-1.7819,-1.7812,-1.7812,-1.7812,-1.7813,-1.7826,-1.7831,-1.7821,-1.782,-1.7822,-1.7836,-1.7841,-1.7842,-1.7862,-1.7847,-1.7848,-1.7848,-1.7849,-1.7899,-1.79,0,0,0,0,0,0,-1.7789,-1.7792,-1.7818,-1.7819,-1.78,-1.7813,-1.7815,-1.7821,-1.7831,-1.7832,-1.7823,-1.7822,-1.7839,-1.7841,-1.7843,-1.7865,-1.7848,-1.7849,-1.785,-1.7898,-1.7899,-1.79,0,0,0,0,0,0,-1.7788,-1.7791,-1.7817,-1.7805,-1.7809,-1.7814,-1.7821,-1.7822,-1.7826,-1.7832,-1.7833,-1.7827,-1.7839,-1.7841,-1.7857,-1.7866,-1.7849,-1.785,-1.7898,-1.7899,-1.7899,-1.791,0,0,0,0,0,0,-1.7787,-1.7791,-1.7797,-1.7806,-1.7809,-1.7831,-1.7822,-1.7822,-1.7828,-1.7828,-1.7836,-1.7837,-1.7838,-1.7855,-1.7858,-1.7867,-1.7851,-1.7897,-1.7898,-1.7899,-1.7909,-1.7911,-1.7913,0,0,0,0,0,-1.7786,-1.7799,-1.7797,-1.7801,-1.7817,-1.7831,-1.7833,-1.7835,-1.7829,-1.7836,-1.784,-1.7837,-1.7864,-1.7856,-1.786,-1.787,-1.7896,-1.7898,-1.7899,-1.7908,-1.7911,-1.7913,0,0,0,0,0,0,-1.779,-1.78,-1.7798,-1.7815,-1.7822,-1.783,-1.7839,-1.7837,-1.7846,-1.7845,-1.7846,-1.7849,-1.7865,-1.7868,-1.786,-1.7888,-1.788,-1.7882,-1.7885,-1.7888,-1.789,-1.7889,-1.7852,0,0,0,0,0,-1.7794,-1.7804,-1.7811,-1.7825,-1.7829,-1.7833,-1.7839,-1.784,-1.7848,-1.7851,-1.7856,-1.7864,-1.7874,-1.7881,-1.7891,-1.7909,-1.7912,-1.7918,-1.792,-1.7922,-1.7924,-1.7936,-1.7939,-1.7904,-1.7904,-1.7904,0,0,-1.78,-1.7806,-1.7813,-1.7826,-1.7832,-1.7844,-1.7836,-1.7848,-1.7856,-1.7852,-1.7868,-1.7872,-1.7881,-1.7898,-1.7906,-1.7902,-1.7934,-1.7924,-1.7925,-1.7926,-1.7938,-1.7941,-1.7944,-1.7905,-1.7905,-1.7905,0,0,-1.7817,-1.7823,-1.7836,-1.7842,-1.7852,-1.7855,-1.7858,-1.7867,-1.787,-1.7885,-1.7883,-1.7893,-1.7911,-1.7918,-1.7924,-1.7946,-1.7944,-1.7949,-1.7961,-1.7972,-1.7975,-1.7978,-1.7987,-1.799,-1.7951,-1.7951,-1.7951,0,-1.7824,-1.7841,-1.7842,-1.7855,-1.7862,-1.786,-1.7873,-1.7879,-1.7892,-1.7897,-1.7892,-1.7915,-1.7921,-1.7941,-1.7947,-1.7951,-1.7956,-1.7948,-1.7975,-1.7977,-1.7979,-1.7989,-1.7992,-1.7952,-1.7952,-1.7952,-1.7952,0,-1.7849,-1.7861,-1.787,-1.7883,-1.7891,-1.7904,-1.7908,-1.7916,-1.7916,-1.792,-1.7937,-1.7944,-1.7956,-1.7961,-1.796,-1.7981,-1.7979,-1.7974,-1.7966,-1.7983,-1.7992,-1.7995,-1.7953,-1.7953,-1.7952,-1.7952,0,0,-1.787,-1.7884,-1.7888,-1.7895,-1.7906,-1.7915,-1.7929,-1.7941,-1.7949,-1.7957,-1.7969,-1.7985,-1.7982,-1.7989,-1.799,-1.8,-1.8019,-1.7994,-1.7994,-1.8,-1.8044,-1.8049,-1.8052,-1.8018,-1.8018,-1.8019,-1.8044,0,-1.7889,-1.7913,-1.7916,-1.7938,-1.795,-1.7949,-1.7961,-1.7969,-1.7974,-1.7985,-1.7989,-1.8001,-1.7995,-1.7999,-1.8009,-1.8015,-1.8028,-1.8013,-1.803,-1.8031,-1.8029,-1.8057,-1.8061,-1.8084,-1.8047,-1.8048,-1.8048,0,-1.7915,-1.7926,-1.7949,-1.796,-1.7965,-1.7976,-1.7989,-1.7999,-1.8009,-1.8012,-1.802,-1.802,-1.8035,-1.8026,-1.8048,-1.8037,-1.8044,-1.8048,-1.8049,-1.8052,-1.8041,-1.8061,-1.8092,-1.8096,-1.8053,-1.8053,-1.8053,0,-1.7929,-1.7949,-1.7967,-1.7972,-1.7985,-1.7993,-1.7999,-1.8009,-1.8017,-1.8028,-1.8034,-1.8046,-1.8053,-1.8063,-1.8067,-1.806,-1.8089,-1.8079,-1.8092,-1.8092,-1.8099,-1.8099,-1.8132,-1.8102,-1.8102,-1.8102,-1.8102,0,-1.7951,-1.7966,-1.7973,-1.7984,-1.8001,-1.8004,-1.8021,-1.8026,-1.8035,-1.8048,-1.8047,-1.8059,-1.8063,-1.8075,-1.8078,-1.8097,-1.8099,-1.8103,-1.8103,-1.8103,-1.8103,-1.8109,-1.8108,-1.8103,-1.8102,-1.8102,-1.8102,0,-1.797,-1.7976,-1.7995,-1.8006,-1.801,-1.8022,-1.8032,-1.8043,-1.8047,-1.8063,-1.8067,-1.8074,-1.8089,-1.8094,-1.8111,-1.8114,-1.8136,-1.8134,-1.8132,-1.8133,-1.8146,-1.8145,-1.8185,-1.8192,-1.8156,-1.8156,-1.8156,0,-1.7984,-1.7996,-1.8009,-1.8018,-1.8024,-1.8038,-1.8046,-1.805,-1.806,-1.8073,-1.8083,-1.8098,-1.811,-1.8134,-1.8141,-1.8155,-1.8155,-1.8168,-1.8157,-1.8157,-1.8157,-1.8157,-1.8159,-1.817,-1.8171,-1.8171,-1.8171,0,-1.8009,-1.8012,-1.8025,-1.8039,-1.805,-1.8061,-1.8072,-1.8079,-1.8084,-1.8095,-1.8111,-1.812,-1.8139,-1.8155,-1.8169,-1.8176,-1.8175,-1.8175,-1.8179,-1.8179,-1.8178,-1.8181,-1.8139,-1.8174,-1.8174,-1.8173,-1.8173,-1.8173,-1.8027,-1.8038,-1.805,-1.8065,-1.8074,-1.8084,-1.8096,-1.8102,-1.8116,-1.8132,-1.8133,-1.8151,-1.8163,-1.8182,-1.819,-1.8204,-1.82,-1.8206,-1.8207,-1.8209,-1.8211,-1.8175,-1.8206,-1.8206,-1.8206,-1.8206,-1.8206,0,-1.8054,-1.8062,-1.8075,-1.8091,-1.8103,-1.8102,-1.8114,-1.8124,-1.814,-1.8151,-1.8163,-1.8183,-1.8198,-1.8207,-1.8223,-1.8232,-1.8233,-1.8236,-1.8236,-1.8238,-1.8212,-1.8208,-1.8236,-1.8236,-1.8236,-1.8236,-1.8236,-1.8236,-1.8069,-1.8088,-1.8092,-1.8117,-1.8124,-1.8142,-1.8149,-1.816,-1.8169,-1.819,-1.8203,-1.8209,-1.822,-1.8237,-1.8252,-1.8254,-1.826,-1.8265,-1.8267,-1.8243,-1.824,-1.8237,-1.8233,-1.8266,-1.8266,-1.8292,-1.8292,-1.8293]}]]